EW3349 Weather Reports


time (UTC)temp
F
wind
direction
speed
knots
gust
knots
rain 1hr
in
rain 24hr
in
rain mn
in
humidity
%
barometer
mb
20260504231126 73 136 0.0 2.6 0.00 0.00 0.00 32 1001.6
20260504225119 75 143 0.0 4.3 0.00 0.00 0.00 29 1001.4
20260504224107 76 154 0.9 6.1 0.00 0.00 0.00 28 1001.4
20260504223032 76 177 0.9 6.1 0.00 0.00 0.00 27 1001.5
20260504220938 76 175 0.9 8.7 0.00 0.00 0.00 28 1001.5
20260504215958 76 150 2.6 8.7 0.00 0.00 0.00 28 1001.6
20260504214934 77 3 0.9 5.2 0.00 0.00 0.00 30 1001.7
20260504213932 76 52 0.9 10.4 0.00 0.00 0.00 30 1001.8
20260504212945 76 34 2.6 10.4 0.00 0.00 0.00 31 1001.8
20260504211933 76 179 2.6 7.0 0.00 0.00 0.00 29 1001.8
20260504210958 77 193 2.6 7.8 0.00 0.00 0.00 28 1001.9
20260504210020 77 173 3.5 7.8 0.00 0.00 0.00 29 1002.0
20260504205014 77 176 2.6 7.0 0.00 0.00 0.00 29 1002.0
20260504203955 77 150 2.6 11.3 0.00 0.00 0.00 29 1002.0
20260504202955 76 125 3.5 11.3 0.00 0.00 0.00 30 1002.3
20260504200807 76 46 3.5 10.4 0.00 0.00 0.00 31 1002.6
20260504195755 76 321 3.5 8.7 0.00 0.00 0.00 31 1002.7
20260504194809 76 355 0.9 7.0 0.00 0.00 0.00 35 1002.9
20260504193753 75 355 2.6 12.2 0.00 0.00 0.00 33 1003.1
20260504192736 75 239 3.5 12.2 0.00 0.00 0.00 33 1003.3
20260504191743 75 161 2.6 10.4 0.00 0.00 0.00 36 1003.3
20260504190728 74 3 2.6 10.4 0.00 0.00 0.00 36 1003.4
20260504185734 73 216 3.5 8.7 0.00 0.00 0.00 37 1003.6
20260504184750 73 30 2.6 11.3 0.00 0.00 0.00 37 1003.6
20260504183808 74 99 2.6 13.0 0.00 0.00 0.00 36 1003.8
20260504182828 73 291 3.5 13.0 0.00 0.00 0.00 37 1003.9
20260504181837 73 326 4.3 13.0 0.00 0.00 0.00 40 1003.9
20260504180802 72 29 2.6 8.7 0.00 0.00 0.00 39 1004.0
20260504175742 72 18 3.5 8.7 0.00 0.00 0.00 43 1004.1
20260504173622 71 336 3.5 10.4 0.00 0.00 0.00 41 1004.3
20260504172636 71 98 3.5 9.6 0.00 0.00 0.00 43 1004.3
20260504171653 70 155 3.5 9.6 0.00 0.00 0.00 42 1004.5
20260504150441 64 354 3.5 10.4 0.00 0.00 0.00 46 1005.5
20260504140226 60 122 3.5 8.7 0.00 0.00 0.00 49 1005.5
20260504130201 57 59 2.6 7.8 0.00 0.00 0.00 51 1006.1
20260504090135 50 253 0.9 7.0 0.00 0.00 0.00 55 1006.7
20260504050441 51 357 0.0 4.3 0.00 0.00 0.00 56 1008.2
20260504045455 51 144 0.9 4.3 0.00 0.00 0.00 56 1008.2
20260504044451 52 8 0.0 4.3 0.00 0.00 0.00 55 1008.2
20260504043506 52 153 0.9 5.2 0.00 0.00 0.00 54 1008.3
20260504042441 52 188 0.9 5.2 0.00 0.00 0.00 54 1008.3
20260504041413 53 151 0.0 4.3 0.00 0.00 0.00 53 1008.3
20260504040411 53 120 0.9 5.2 0.00 0.00 0.00 53 1008.3
20260504035356 53 217 0.9 5.2 0.00 0.00 0.00 53 1008.2
20260504034353 53 170 0.9 4.3 0.00 0.00 0.00 53 1008.2
20260504032135 54 190 0.0 5.2 0.00 0.00 0.00 53 1008.2
20260504031124 54 23 0.9 7.0 0.00 0.00 0.00 52 1008.2
20260504023922 54 51 0.9 4.3 0.00 0.00 0.00 53 1008.4
20260504022937 54 205 0.0 4.3 0.00 0.00 0.00 52 1008.6
20260504021925 53 13 0.0 4.3 0.00 0.00 0.00 53 1008.7
20260504020928 53 223 0.0 3.5 0.00 0.00 0.00 54 1008.6
20260504015943 53 30 0.0 3.5 0.00 0.00 0.00 55 1008.8
20260504014933 52 270 0.0 0.9 0.00 0.00 0.00 57 1008.7
20260504013926 52 105 0.0 0.0 0.00 0.00 0.00 57 1008.6
20260504011735 53 139 0.9 7.0 0.00 0.00 0.00 56 1009.0
20260504010751 53 300 0.9 7.0 0.00 0.00 0.00 55 1008.9
20260504005802 53 342 0.9 7.0 0.00 0.00 0.00 56 1008.8
20260504004746 53 154 0.9 9.6 0.00 0.00 0.00 56 1009.0
20260504003716 53 338 3.5 9.6 0.00 0.00 0.00 56 1009.2
20260504002654 53 351 0.9 7.0 0.00 0.00 0.00 56 1009.4
20260504001626 53 356 2.6 9.6 0.00 0.00 0.00 54 1009.2
20260504000554 54 356 3.5 9.6 0.00 0.00 0.00 53 1009.2
20260503235600 54 338 0.9 8.7 0.00 0.00 0.00 53 1009.0
20260503234556 54 16 2.6 11.3 0.00 0.00 0.00 51 1008.9
20260503233547 54 348 5.2 14.8 0.00 0.00 0.00 51 1009.0
20260503232559 55 309 3.5 14.8 0.00 0.00 0.00 49 1008.9